Palacios, TX

6:04 AM CDT on July 28, 2017 (GMT -0500)
Palacios Municipal

Weather History for KPSX - March, 2013

Change the Weather History Date:

Saturday, March 2, 2013

  Actual Average Record
Temperature  
Mean Temperature 52 °F -  
Max Temperature 63 °F 68 °F 81 °F (1991)
Min Temperature 42 °F 52 °F 23 °F (1980)
Degree Days  
Heating Degree Days 12    
Growing Degree Days 2 (Base 50)    
Moisture  
Dew Point 26 °F    
Average Humidity 43    
Maximum Humidity 76    
Minimum Humidity 18    
Precipitation  
Precipitation 0.00 in - - ()
Sea Level Pressure  
Sea Level Pressure 30.32 in    
Wind  
Wind Speed 12 mph (North)    
Max Wind Speed 25 mph    
Max Gust Speed 32 mph    
Visibility 10 miles    
Events      
Averages and records for this station are not official NWS values.
T = Trace of Precipitation, MM = Missing Value Source: NWS Daily Summary

Daily Weather History Graph

Daily Weather History Graph

Search for Another Location

Airport or City:

Trip Planner

Search our weather history database for the weather conditions in past years. The results will help you decide how hot, cold, wet, or windy it might be!

Date:

Astronomy

Mar. 02, 2013 Rise Set
Actual Time 6:48 AM CST 6:25 PM CST
Civil Twilight 6:25 AM CST 6:49 PM CST
Nautical Twilight 5:57 AM CST 7:16 PM CST
Astronomical Twilight 5:30 AM CST 7:44 PM CST
Moon 11:35 PM CST (3/2) 9:46 AM CST (3/2)
Length of Visible Light 12h 24m
Length of Day
11h 37m
Waning Gibbous, 74% of the Moon is Illuminated
Mar 2
Waning Gibbous
Mar 4
Last Quarter
Mar 11
New
Mar 19
First Quarter
Mar 27
Full

Hourly Weather History & Observations

Time (CST) Temp. Windchill Dew Point Humidity Pressure Visibility Wind Dir Wind Speed Gust Speed Precip Events Conditions
12:53 AM 46.9 °F - 37.9 °F 71% 30.27 in 10.0 mi North 5.8 mph - N/A   Clear
1:53 AM 42.1 °F 37.1 °F 35.1 °F 76% 30.28 in - North 8.1 mph - N/A   Clear
2:53 AM 43.0 °F 40.3 °F 33.1 °F 68% 30.27 in - NW 4.6 mph - N/A   Clear
3:53 AM 42.1 °F 36.6 °F 34.0 °F 73% 30.27 in - NNW 9.2 mph - N/A   Partly Cloudy
4:53 AM 46.0 °F 40.2 °F 34.0 °F 63% 30.30 in - North 12.7 mph - N/A   Clear
5:53 AM 44.1 °F 38.6 °F 32.0 °F 63% 30.32 in - North 10.4 mph - N/A   Clear
6:53 AM 42.1 °F 36.1 °F 32.0 °F 67% 30.35 in - NNW 10.4 mph - N/A   Clear
7:53 AM 46.9 °F - 33.1 °F 59% 30.38 in - North 16.1 mph - N/A   Clear
8:53 AM 50.0 °F - 30.9 °F 48% 30.40 in - North 15.0 mph - N/A   Clear
9:53 AM 52.0 °F - 30.0 °F 43% 30.41 in - NNW 16.1 mph 25.3 mph N/A   Clear
10:53 AM 55.9 °F - 23.0 °F 28% 30.40 in - North 23.0 mph 28.8 mph N/A   Clear
11:53 AM 57.9 °F - 19.9 °F 23% 30.39 in 10.0 mi NNW 24.2 mph 31.1 mph N/A   Clear
12:53 PM 59.0 °F - 19.9 °F 22% 30.35 in 10.0 mi NNW 21.9 mph 31.1 mph N/A   Clear
1:53 PM 61.0 °F - 19.9 °F 21% 30.32 in 10.0 mi NNW 25.3 mph 32.2 mph N/A   Clear
2:53 PM 62.1 °F - 19.0 °F 19% 30.30 in 10.0 mi NW 23.0 mph 29.9 mph N/A   Clear
3:53 PM 63.0 °F - 19.0 °F 18% 30.29 in 10.0 mi NNW 19.6 mph 29.9 mph N/A   Clear
4:53 PM 62.1 °F - 17.1 °F 18% 30.28 in 10.0 mi North 20.7 mph 27.6 mph N/A   Clear
5:53 PM 59.0 °F - 18.0 °F 20% 30.29 in 10.0 mi NNW 17.3 mph 25.3 mph N/A   Clear
6:53 PM 53.1 °F - 19.0 °F 26% 30.31 in 10.0 mi North 9.2 mph - N/A   Clear
7:53 PM 48.9 °F - 21.0 °F 33% 30.31 in 10.0 mi NNE 5.8 mph - N/A   Clear
8:53 PM 46.9 °F - 23.0 °F 39% 30.32 in 10.0 mi ENE 4.6 mph - N/A   Clear
9:53 PM 46.0 °F 42.5 °F 23.0 °F 40% 30.32 in 10.0 mi East 6.9 mph - N/A   Clear
10:53 PM 46.0 °F 42.5 °F 24.1 °F 42% 30.32 in 10.0 mi East 6.9 mph - N/A   Clear
11:53 PM 46.9 °F - 25.0 °F 42% 30.30 in - SE 4.6 mph - N/A   Clear